ATLAS CENTAUR 2 1 00694U 63047A 10039.44185283 .00000646 00000-0 72407-4 0 1865 2 00694 30.3617 99.2039 0616672 259.9943 93.0546 13.95113030306464 THOR AGENA D R/B 1 00733U 64002A 10039.67321442 -.00000010 00000-0 14200-4 0 9912 2 00733 99.0966 77.9355 0034950 68.3082 292.1811 14.31282721398036 SL-3 R/B 1 00877U 64053B 10040.04306384 -.00000110 00000-0 17779-5 0 3165 2 00877 65.0765 210.3015 0051495 83.5762 277.1196 14.58104785409874 SL-8 R/B 1 02802U 67045B 10039.32879443 .00000045 00000-0 21299-4 0 2233 2 02802 74.0110 121.6158 0067031 101.7076 259.1609 14.42486474241564 SL-8 R/B 1 03230U 68040B 10038.99485216 .00000076 00000-0 13451-4 0 8767 2 03230 74.0350 193.0862 0033645 138.5822 221.7927 14.84282141236239 OAO 2 1 03597U 68110A 10039.78764325 .00000011 00000-0 84400-5 0 2610 2 03597 34.9936 214.1764 0006008 5.5486 354.5270 14.44881469169198 ISIS 1 1 03669U 69009A 10039.52178285 .00000045 00000-0 18310-4 0 08 2 03669 88.4172 85.5708 1715362 46.6461 326.5279 11.28866148685874 METEOR 1-1 1 03835U 69029A 10039.24678429 .00003779 00000-0 68176-4 0 3004 2 03835 81.1663 117.8622 0008765 120.6356 239.5753 15.49401026233916 SERT 2 1 04327U 70009A 10038.64830742 .00000032 00000-0 10000-3 0 1214 2 04327 99.1802 262.0089 0005457 75.2951 284.8787 13.58233385982761 SL-3 R/B 1 04814U 70113B 10039.29033238 .00000924 00000-0 48769-4 0 1818 2 04814 81.1535 308.7584 0041483 137.4343 223.0138 15.13769367125951 SL-3 R/B 1 05118U 71028B 10039.91059912 -.00000103 00000-0 -93831-5 0 3564 2 05118 81.2413 328.9425 0049201 156.2438 204.1044 15.02416699 99662 ASTEX 1 1 05560U 71089A 10039.46373740 .00000060 00000-0 17069-4 0 262 2 05560 92.7123 59.5442 0018642 43.3382 316.9291 14.46232210 12756 SL-8 R/B 1 05730U 71119B 10039.44575589 .00001274 00000-0 96794-4 0 3834 2 05730 73.9024 110.8594 0802099 152.5062 212.0987 13.77306048832819 COSMOS 482 DESCENT CRAFT 1 06073U 72023E 10040.13548875 .00020343 30760-5 15302-3 0 6596 2 06073 52.1003 167.9493 2183207 188.3420 167.4576 11.22249558 41883 OAO 3 (COPERNICUS) 1 06153U 72065A 10039.79294105 .00000042 00000-0 13875-4 0 3960 2 06153 35.0062 161.8710 0006360 160.4042 199.6923 14.56588372988967 ATLAS CENTAUR R/B 1 06155U 72065B 10039.48652816 .00000068 00000-0 15702-4 0 781 2 06155 35.0040 182.0959 0040696 30.4273 329.8793 14.68017367996647 OPS 8180 (RADCAT) 1 06212U 72076A 10039.37407537 .00002793 00000-0 10018-3 0 9390 2 06212 98.5754 88.8170 0002078 256.3311 103.7777 15.29791664158973 SL-8 R/B 1 07004U 73107B 10039.86341651 .00001798 00000-0 74040-4 0 2454 2 07004 73.9634 148.5109 0427736 316.1013 40.6892 14.68938328835048 SL-8 R/B 1 07338U 74044B 10039.05447310 .00004846 00000-0 92639-4 0 870 2 07338 82.8801 215.5030 0209369 318.1287 40.4092 15.27295208835562 DELTA 1 R/B 1 08063U 75072B 10039.38686109 .00006089 00000-0 17318-3 0 4757 2 08063 89.1485 316.7372 0932497 263.4012 86.0344 13.71621196501025 SL-8 R/B 1 08459U 75112B 10040.06841766 -.00000038 00000-0 -43235-5 0 8719 2 08459 74.0617 355.9563 0015796 122.2073 238.0619 14.35895765788694 SL-3 R/B 1 10114U 77057B 10039.78472781 .00000757 00000-0 51965-4 0 451 2 10114 97.4770 296.2392 0015750 261.4220 98.5267 15.08853698777642 SL-3 R/B 1 10861U 78045B 10039.79604098 .00002121 00000-0 53805-4 0 2394 2 10861 81.2036 155.2945 0019224 242.5945 117.3343 15.38997211741705 SEASAT 1 1 10967U 78064A 10039.37275945 -.00000067 00000-0 21221-4 0 372 2 10967 108.0154 96.0721 0003351 262.7418 97.3344 14.42179821659224 SL-14 R/B 1 11267U 79011B 10039.14345667 .00000060 00000-0 39342-5 0 267 2 11267 82.5205 241.4807 0018263 143.5211 216.7250 14.87031419676060 SL-8 R/B 1 11574U 79089B 10038.77093272 .00000037 00000-0 20108-4 0 4945 2 11574 74.0696 133.4175 0015964 359.4011 0.7126 14.39620284590441 SL-14 R/B 1 11672U 80005B 10039.24161916 .00000094 00000-0 79758-5 0 6365 2 11672 82.5133 90.6828 0015858 217.4279 142.5839 14.86083275624269 SL-3 R/B 1 11849U 80051B 10039.32184001 .00000923 00000-0 39046-4 0 541 2 11849 97.7282 183.3199 0011801 140.4456 219.7649 15.25872776623671 SL-3 R/B 1 11933U 80069B 10039.27159741 .00001063 00000-0 30568-4 0 9164 2 11933 81.2192 113.5135 0024442 113.8250 246.5579 15.34506304617369 COSMOS 1220 1 12054U 80089A 10039.09742676 .00001592 00000-0 73297-4 0 1958 2 12054 64.9753 256.5290 0037878 46.5325 313.8944 15.23831022504160 SL-8 R/B 1 12139U 81003B 10040.13954947 .00002089 00000-0 12862-3 0 9772 2 12139 82.9559 229.8990 0590247 234.7184 119.7488 14.24692063460927 SL-8 R/B 1 12389U 81033B 10039.17201261 .00004591 00000-0 14547-3 0 5765 2 12389 82.9165 114.5108 0405449 131.5882 232.0885 14.78621449471859 SL-3 R/B 1 12465U 81046B 10039.89822778 .00000529 00000-0 35592-4 0 389 2 12465 81.2270 208.6517 0036826 233.1694 126.6159 15.04498844562541 METEOR PRIRODA 1 12585U 81065A 10039.68619109 .00000080 00000-0 92754-5 0 5787 2 12585 97.3777 81.6589 0019472 352.1267 7.9638 15.07373801556182 SL-3 R/B 1 12904U 81103B 10039.18048102 .00000289 00000-0 22090-4 0 1231 2 12904 81.1791 86.0045 0031395 214.1555 145.7592 14.98582470 89707 SL-3 R/B 1 13068U 82013B 10039.49308240 .00000173 00000-0 11865-4 0 1274 2 13068 81.2054 31.6285 0025942 134.0025 226.3316 15.00349961519963 SL-3 R/B 1 13154U 82039B 10039.44508165 .00000324 00000-0 28774-4 0 8802 2 13154 81.1847 8.6473 0045104 358.1514 1.9516 14.92796571502352 COSMOS 1400 1 13402U 82079A 10040.02914711 .00002025 00000-0 71265-4 0 9912 2 13402 81.1293 201.9844 0008825 38.7779 321.4086 15.28834319505455 SL-3 R/B 1 13403U 82079B 10039.87034533 .00000196 00000-0 13923-4 0 2466 2 13403 81.1716 86.0612 0041355 76.2213 284.3627 14.99203177493459 SL-3 R/B 1 13819U 83010B 10040.10978696 .00000263 00000-0 16584-4 0 6575 2 13819 81.1039 30.2025 0036675 193.3099 166.7161 15.05145213468619 COSMOS 1484 1 14207U 83075A 10039.40440426 .00003481 00000-0 72542-4 0 5237 2 14207 97.5584 171.8277 0016694 86.1891 274.1258 15.46183270897859 SL-3 R/B 1 14208U 83075B 10039.23502531 .00000889 00000-0 70517-4 0 8327 2 14208 97.6448 95.7480 0047670 308.0438 51.6489 15.02278438443248 COSMOS 1500 1 14372U 83099A 10040.10943023 -.00000120 00000-0 -10675-4 0 3388 2 14372 82.5296 84.3550 0012297 299.8543 60.1464 15.04243683432553 SL-8 R/B 1 14484U 83111B 10039.49594938 .00003435 00000-0 11186-3 0 1211 2 14484 82.8516 342.5390 0425256 259.4306 95.8769 14.74154662335197 COSMOS 1536 1 14699U 84013A 10040.11991556 -.00000067 00000-0 -79799-5 0 7008 2 14699 82.5244 33.9321 0014723 155.8142 204.3777 14.98139084410215 COSMOS 1544 1 14819U 84027A 10040.06067166 .00000398 00000-0 23866-4 0 7123 2 14819 82.5267 160.7357 0018377 51.0180 309.2684 15.07954891409076 SL-14 R/B 1 14820U 84027B 10039.86735643 .00000110 00000-0 10806-4 0 3132 2 14820 82.5443 330.6726 0017476 271.6507 88.2698 14.82114822398030 ERBS 1 15354U 84108B 10039.97573338 -.00000155 00000-0 74277-5 0 3041 2 15354 56.9887 257.5966 0022201 131.4530 228.8389 15.15980749387969 SL-8 R/B 1 15483U 85006B 10039.48834808 .00000086 00000-0 39016-4 0 9814 2 15483 74.0425 240.3780 0019147 164.8988 195.2740 14.35243736311129 SL-12 R/B(2) 1 15772U 85042D 10039.91467756 .00000069 00000-0 53887-4 0 1665 2 15772 71.1056 239.2505 0037550 256.2091 103.4874 14.20718230280000 SL-14 R/B 1 15945U 85069B 10039.38207605 .00000083 00000-0 73520-5 0 2903 2 15945 82.5285 125.2352 0021236 130.9902 229.3131 14.82452015322936 SL-3 R/B 1 16111U 85090B 10039.30475771 .00000685 00000-0 34859-4 0 1634 2 16111 97.5611 104.9948 0033810 218.0919 141.7992 15.19864467332968 SL-16 R/B 1 16182U 85097B 10039.93981178 -.00000273 00000-0 -11411-3 0 688 2 16182 71.0012 256.4169 0009078 214.7527 145.2974 14.15960492256080 SL-14 R/B 1 16496U 86006B 10039.33532952 .00000074 00000-0 63031-5 0 2038 2 16496 82.5247 2.8949 0018110 286.3624 73.5607 14.82551906299212 SL-14 R/B 1 16792U 86046B 10039.34221965 .00000073 00000-0 62155-5 0 1013 2 16792 82.4792 206.5561 0026118 122.6936 237.6798 14.81680518276987 SL-14 R/B 1 16882U 86055B 10039.93761885 .00000040 00000-0 20553-5 0 983 2 16882 82.5165 224.1376 0018569 244.4197 115.5095 14.81629023270088 AJISAI (EGS) 1 16908U 86061A 10039.87866973 -.00000083 00000-0 10000-3 0 1338 2 16908 50.0085 151.2512 0011637 101.0118 259.2026 12.44463695737075 COSMOS 1812 1 17295U 87003A 10039.08423239 -.00000157 00000-0 -13914-4 0 1197 2 17295 82.5184 239.4402 0011707 322.6697 37.3717 15.02531915254156 SL-14 R/B 1 17567U 87024B 10039.88420470 .00000087 00000-0 79452-5 0 9956 2 17567 82.5276 189.2139 0018907 189.2794 170.8076 14.82196084238517 COSMOS 1833 1 17589U 87027A 10039.49045709 -.00000243 00000-0 -10521-3 0 5196 2 17589 70.9101 68.3725 0004232 72.6417 287.5172 14.12733752180982 SL-16 R/B 1 17590U 87027B 10040.10337734 .00000169 00000-0 10868-3 0 4671 2 17590 71.0016 42.8513 0003234 78.1479 282.0027 14.16480590183876 SL-14 R/B 1 17912U 87038B 10039.52493180 .00000052 00000-0 35471-5 0 9858 2 17912 82.4976 47.1409 0022667 65.5108 294.8478 14.81499292229915 COSMOS 1844 1 17973U 87041A 10039.47930032 -.00000051 00000-0 -12183-5 0 5419 2 17973 70.8950 172.2917 0032298 196.3632 163.6457 14.13723632173534 SL-14 R/B 1 18153U 87055B 10038.72067583 .00000091 00000-0 85527-5 0 9928 2 18153 82.4996 103.5504 0020703 285.8127 74.0799 14.81727664220366 COSMOS 1867 1 18187U 87060A 10039.40214149 -.00000120 00000-0 -73511-5 0 8057 2 18187 65.0090 183.9236 0016483 280.5208 79.4039 14.30860100179705 SL-14 R/B 1 18749U 88001B 10039.17842473 .00000102 00000-0 99309-5 0 9982 2 18749 82.5148 298.7452 0020157 145.3739 214.8792 14.81669238192556 COSMOS 1933 1 18958U 88020A 10040.07965030 .00000003 00000-0 -20614-5 0 8962 2 18958 82.5329 160.6926 0014209 17.5488 342.6230 14.96797172189068 SL-3 R/B 1 19046U 88032B 10039.57088827 -.00000521 00000-0 -40336-4 0 4208 2 19046 97.8757 83.4372 0038682 17.7646 342.4925 14.95972774170350 SL-16 R/B 1 19120U 88039B 10039.71825620 -.00000008 00000-0 19378-4 0 8456 2 19120 71.0108 237.4667 0023263 338.2801 21.7383 14.18589893125444 COSMOS 1953 1 19210U 88050A 10039.55106225 .00000372 00000-0 30208-4 0 83 2 19210 82.5178 98.4830 0017132 5.8631 354.2785 14.96687360175046 SL-8 R/B 1 19257U 88053B 10039.21024958 .00000058 00000-0 28771-4 0 8005 2 19257 74.0499 110.3139 0021499 305.4075 54.5076 14.36413607132981 COSMOS 1975 1 19573U 88093A 10040.14652237 .00000089 00000-0 55838-5 0 7795 2 19573 82.5205 43.4977 0018753 20.8727 339.3238 14.95460718157451 SL-14 R/B 1 19574U 88093B 10039.78947143 .00000099 00000-0 95543-5 0 9797 2 19574 82.5335 132.6997 0021691 324.6718 35.3053 14.81768465151591 SL-16 R/B 1 19650U 88102B 10039.76365155 .00000162 00000-0 10698-3 0 808 2 19650 70.9985 260.6201 0015460 303.6711 56.2907 14.15522770 95956 INTERCOSMOS 24 1 20261U 89080A 10039.86354830 -.00000099 00000-0 -37999-4 0 853 2 20261 82.5935 306.3726 1215920 156.4640 209.7309 12.53456913929232 SL-14 R/B 1 20262U 89080C 10040.18860286 .00000053 00000-0 15480-4 0 5863 2 20262 82.5953 334.1094 1240104 252.2833 93.9360 12.47774034926722 DELTA 1 R/B 1 20323U 89089B 10040.00110807 .00000066 00000-0 27145-4 0 6842 2 20323 97.0781 20.0702 0072272 237.8866 121.5308 14.46777977 66297 DELTA 2 R/B(1) 1 20453U 90008B 10039.95350492 .00000940 00000-0 72990-4 0 7038 2 20453 35.6312 230.8723 0376122 214.5479 143.0258 14.59766971 52649 COSMOS 2058 1 20465U 90010A 10040.08809894 .00000401 00000-0 37900-4 0 7051 2 20465 82.4931 295.0061 0016155 293.4562 66.4961 14.91048835 84410 SL-14 R/B 1 20466U 90010B 10039.31165333 .00000080 00000-0 74811-5 0 5907 2 20466 82.5031 2.8674 0021866 146.2153 214.0465 14.79919024 80085 SL-14 R/B 1 20511U 90018B 10039.29498868 .00000077 00000-0 73720-5 0 5987 2 20511 82.5233 292.6267 0016047 273.1310 86.8056 14.78637535 74994 HST 1 20580U 90037B 10039.31536863 .00000423 00000-0 19571-4 0 5141 2 20580 28.4702 1.1182 0003300 268.1978 91.8283 15.00889866885362 SL-16 R/B 1 20625U 90046B 10040.06322821 -.00000027 00000-0 10886-4 0 5110 2 20625 70.9968 23.5980 0016119 227.7528 132.2245 14.14375851 18146 COSMOS 2084 1 20663U 90055A 10039.38218781 .00000052 00000-0 25361-4 0 7522 2 20663 62.7944 146.2893 0124667 44.9563 316.1526 14.85387624 60043 SL-6 R/B(2) 1 20666U 90055D 10039.60955788 -.00000085 00000-0 11527-4 0 8195 2 20666 62.7854 76.4306 0134752 62.6724 298.8013 14.86457405 61269 SL-8 R/B 1 20775U 90078B 10039.52579227 .00000447 00000-0 22703-4 0 1341 2 20775 82.9357 32.9491 0728267 131.0991 235.5473 13.98498669969209 SL-8 R/B 1 21088U 91006B 10039.46009909 -.00000086 00000-0 -10315-3 0 6317 2 21088 82.9374 216.2093 0021312 278.0344 81.8405 13.76742920956012 OKEAN-3 1 21397U 91039A 10039.39027596 .00000235 00000-0 23508-4 0 8898 2 21397 82.5246 157.5757 0019475 172.7928 187.3554 14.86897922 9974 COSMOS 2151 1 21422U 91042A 10040.07627658 .00000317 00000-0 32177-4 0 5208 2 21422 82.4994 272.4277 0014204 225.0705 134.9388 14.87549042 8774 SL-14 R/B 1 21423U 91042B 10040.12156001 .00000078 00000-0 75094-5 0 3932 2 21423 82.4939 307.9329 0019287 41.4834 318.7848 14.78416115 5702 ERS-1 1 21574U 91050A 10039.12366756 -.00000003 00000-0 12726-4 0 6671 2 21574 98.1550 49.6101 0035099 82.6172 277.9011 14.35693668971940 ARIANE 40 R/B 1 21610U 91050F 10039.91824477 .00000089 00000-0 43403-4 0 2415 2 21610 98.6699 12.5351 0003635 27.0829 333.0549 14.39132873973659 UARS 1 21701U 91063B 10040.18418055 .00008617 00000-0 10902-3 0 8869 2 21701 56.9727 43.1487 0063318 277.0309 82.3554 15.58109154 16121 INTERCOSMOS 25 1 21819U 91086A 10040.10784011 .00000042 00000-0 39237-5 0 9830 2 21819 82.5489 229.8025 1549636 13.9267 349.9902 11.99070445789762 SL-14 R/B 1 21820U 91086B 10040.12329521 .00000236 00000-0 39454-4 0 8929 2 21820 82.5520 259.0326 1589285 112.4734 265.2022 11.90884801786879 SL-8 R/B 1 21876U 92008B 10038.72157518 .00000047 00000-0 33353-4 0 6619 2 21876 82.9293 313.4246 0034646 334.6583 25.2873 13.75380283902072 SL-8 R/B 1 21938U 92020B 10038.94545600 .00000101 00000-0 89050-4 0 6873 2 21938 82.9289 194.3731 0030403 123.9493 236.4567 13.75040171894106 SL-16 R/B 1 22220U 92076B 10039.95087119 -.00000236 00000-0 -95233-4 0 1064 2 22220 71.0012 310.2393 0011343 37.2179 322.9707 14.16151356890586 SL-16 R/B 1 22285U 92093B 10038.68695655 -.00000280 00000-0 -12069-3 0 1168 2 22285 71.0196 86.7250 0006638 260.1963 99.8419 14.14736227882558 COSMOS 2228 1 22286U 92094A 10039.47521445 .00000053 00000-0 35611-5 0 9718 2 22286 82.5201 16.6969 0022603 7.2282 352.9244 14.83100546923848 SL-16 R/B 1 22566U 93016B 10040.15072074 -.00000196 00000-0 -77226-4 0 8479 2 22566 71.0091 301.6089 0012420 258.3089 101.6631 14.14656344871510 COSMOS 2242 1 22626U 93024A 10039.57504690 .00000118 00000-0 11452-4 0 7271 2 22626 82.5188 44.2513 0021372 7.6592 352.4942 14.83253035907497 SL-16 R/B 1 22803U 93059B 10039.84137575 -.00000124 00000-0 -38304-4 0 671 2 22803 70.9899 146.8680 0016782 160.2041 199.9757 14.16542115847983 ARIANE 40 R/B 1 22830U 93061H 10039.92377537 -.00000000 00000-0 16812-4 0 9476 2 22830 98.6066 351.5422 0010295 225.3831 134.6516 14.30494628854212 COSMOS 2278 1 23087U 94023A 10039.00699440 .00000287 00000-0 17827-3 0 1068 2 23087 71.0502 211.1223 0008440 348.3693 11.7230 14.13301430814918 SL-16 R/B 1 23088U 94023B 10039.73897489 -.00000313 00000-0 -13857-3 0 7395 2 23088 70.9995 157.4256 0005330 234.0375 126.0248 14.14459697815790 SL-16 R/B 1 23343U 94074B 10039.34517684 -.00000005 00000-0 68736-5 0 7001 2 23343 98.0604 8.5536 0007828 36.2634 323.9132 14.75006097820675 SL-16 R/B 1 23405U 94077B 10039.65917607 -.00000048 00000-0 00000+0 0 2079 2 23405 70.9888 100.5699 0000431 77.9935 282.1234 14.14933083785619 ERS-2 1 23560U 95021A 10040.09157826 .00000002 00000-0 16955-4 0 8964 2 23560 98.5336 116.8393 0001028 117.2069 242.9228 14.32255776774122 ARIANE 40+ R/B 1 23561U 95021B 10039.90853806 .00000042 00000-0 29128-4 0 5286 2 23561 98.4703 351.6233 0006434 315.9155 44.1516 14.36408626775571 SL-16 R/B 1 23705U 95058B 10039.18035168 -.00000301 00000-0 -13107-3 0 351 2 23705 71.0207 263.2513 0010522 69.8346 290.3910 14.14868615737245 SL-16 R/B 1 24298U 96051B 10039.92833598 .00000095 00000-0 77576-4 0 2607 2 24298 70.8847 316.1443 0019049 226.3928 133.5618 14.12405518692665 ORBVIEW 2 (SEASTAR) 1 24883U 97037A 10038.96564325 -.00000017 00000-0 65174-5 0 508 2 24883 98.3670 169.7415 0001868 162.7883 197.3374 14.60021863666846 SL-16 R/B 1 25400U 98043G 10039.63279341 -.00000033 00000-0 34032-5 0 4273 2 25400 98.3411 81.2141 0009073 262.1129 97.9028 14.25107191602541 SL-16 R/B 1 25407U 98045B 10038.83638529 .00000205 00000-0 12903-3 0 2516 2 25407 71.0123 285.4593 0008192 327.5427 32.5166 14.15512049596016 ISS (ZARYA) 1 25544U 98067A 10040.38873190 .00019275 00000-0 12567-3 0 5505 2 25544 51.6454 166.8195 0010777 303.5541 109.5214 15.75852402643347 SL-8 R/B 1 25723U 99022C 10037.22007142 -.00000313 00000-0 -12885-6 0 4927 2 25723 48.4444 311.9129 0022023 115.6733 244.6475 15.16267511594814 CZ-4B R/B 1 25732U 99025C 10039.98279136 -.00000025 00000-0 90855-5 0 3165 2 25732 98.6767 14.3018 0037177 199.8827 160.0903 14.17198741556244 OKEAN-O 1 25860U 99039A 10039.81196847 .00000033 00000-0 12329-4 0 9085 2 25860 97.8172 16.9859 0001641 99.5718 260.5671 14.73611558567990 SL-16 R/B 1 25861U 99039B 10039.51804330 -.00000014 00000-0 49875-5 0 2749 2 25861 97.7277 23.0871 0017083 116.1026 244.1957 14.76628500569214 SL-14 R/B 1 26874U 01032B 10039.32176756 .00000722 00000-0 19783-4 0 3642 2 26874 82.4806 179.4383 0024013 20.8190 339.4038 15.35169291476494 ENVISAT 1 27386U 02009A 10040.15585731 .00000047 00000-0 33449-4 0 7634 2 27386 98.5420 109.1052 0000927 92.8692 350.0934 14.32251161415413 IDEFIX & ARIANE 42P R/B 1 27422U 02021B 10040.12619734 .00000032 00000-0 30001-4 0 2592 2 27422 98.5003 118.6436 0011627 246.4855 113.5101 14.28529258403234 AQUA 1 27424U 02022A 10040.04142233 .00000076 00000-0 26823-4 0 5566 2 27424 98.2054 343.4448 0001631 97.7525 262.3853 14.57113898413256 CZ-4B R/B 1 27432U 02024C 10039.17492025 .00000073 00000-0 59829-4 0 7938 2 27432 98.6033 19.1616 0051459 112.4598 248.2034 14.13614874399257 JB-3 2 (ZY 2B) 1 27550U 02049A 10040.14427692 .00000799 00000-0 34622-4 0 3343 2 27550 97.0874 67.3676 0010452 61.3586 9.7791 15.25030311405599 MIDORI II (ADEOS-II) 1 27597U 02056A 10039.28744725 .00000010 00000-0 21897-4 0 662 2 27597 98.4439 100.8088 0000861 18.4852 341.6359 14.26192241372440 H-2A R/B 1 27601U 02056E 10038.85596077 .00000030 00000-0 27537-4 0 8404 2 27601 98.5606 130.1519 0072732 309.1428 50.3305 14.30734332373560 H-2A R/B 1 27700U 03009C 10040.12693049 .00004430 00000-0 11338-3 0 482 2 27700 97.0058 57.3252 0040610 339.6032 20.3658 15.39063438384122 CZ-4B R/B 1 28059U 03049C 10039.87904593 -.00000006 00000-0 10415-4 0 7932 2 28059 98.5507 170.7766 0051768 131.2716 229.2955 14.51453417334001 CZ-2C R/B 1 28222U 04012C 10039.15213814 -.00000255 00000-0 -16484-4 0 8575 2 28222 97.4076 79.5075 0054836 340.7827 19.1295 14.97132976317288 SL-16 R/B 1 28353U 04021B 10039.79929294 -.00000291 00000-0 -12822-3 0 5620 2 28353 71.0011 308.8656 0006313 295.6417 64.4053 14.13912413292550 CZ-4B R/B 1 28471U 04044B 10039.89093622 .00003061 00000-0 70556-4 0 5652 2 28471 96.9679 58.0052 0100674 218.5346 140.8682 15.38127960294272 CZ-2C R/B 1 28480U 04046B 10040.23981400 .00000057 00000-0 38126-4 0 6069 2 28480 98.1746 297.8191 0142556 239.6109 119.0808 14.24841104271803 ARIANE 5 R/B 1 28499U 04049H 10039.91971180 -.00000008 00000-0 70908-5 0 6319 2 28499 98.2895 28.7597 0096707 194.8365 165.0002 14.77144345277222 CZ-2D R/B 1 28738U 05024B 10039.13133876 .00000951 00000-0 79560-4 0 5592 2 28738 97.7677 59.2791 0011573 103.7964 256.4543 15.00827629251640 SUZAKU (ASTRO-EII) 1 28773U 05025A 10039.53098449 .00000417 00000-0 26318-4 0 1835 2 28773 31.4050 211.9441 0006690 14.0477 346.0351 15.00927950251747 ALOS (DAICHI) 1 28931U 06002A 10040.13750498 .00000151 00000-0 41361-4 0 5355 2 28931 98.1655 116.9633 0001165 99.7769 260.3574 14.59567574215466 H-2A R/B 1 28932U 06002B 10039.10076550 .00000210 00000-0 30848-4 0 3094 2 28932 98.2302 171.0116 0107200 35.5394 325.2879 14.82705565218657 AKARI (ASTRO-F) 1 28939U 06005A 10040.03859905 .00000024 00000-0 15513-4 0 2017 2 28939 98.2535 46.2314 0008582 159.6711 200.4819 14.57594820210594 M-V-8 R/B 1 28942U 06005D 10039.60967284 .00026272 26352-5 17327-3 0 1381 2 28942 98.1537 232.5189 0151031 59.8096 301.8017 15.61939557222779 RESURS-DK 1 1 29228U 06021A 10040.13532667 .00001889 00000-0 43447-4 0 1130 2 29228 69.9330 99.8654 0157913 152.5015 208.4688 15.32962550204630 COSMOS 2421 1 29247U 06026A 10039.58188255 .00028164 00000-0 23909-3 0 9507 2 29247 65.0346 187.2973 0013849 272.5895 87.3700 15.69430565206074 GENESIS 1 1 29252U 06029A 10039.13164891 .00000226 00000-0 29301-4 0 9767 2 29252 64.5144 320.3480 0002559 132.9869 227.1465 15.03509492196387 H-2A R/B 1 29394U 06037B 10039.40696104 .00005285 00000-0 12321-3 0 461 2 29394 97.3462 170.0256 0034270 222.8652 136.9919 15.42077859191562 CZ-4B R/B 1 29507U 06046C 10039.19438119 -.00000050 00000-0 76862-6 0 776 2 29507 97.6609 42.7772 0043201 245.0203 114.6475 14.92485589179456 SL-8 R/B 1 29659U 06060B 10040.25387188 .00002097 00000-0 75438-4 0 9225 2 29659 98.0887 164.6383 0038265 132.8972 227.5492 15.29277304175251 ATLAS 5 CENTAUR R/B 1 30778U 07006G 10039.28750353 .00000856 00000-0 45966-4 0 7782 2 30778 35.7045 6.3221 0029979 157.7674 202.4357 15.16042692161948 CZ-2C R/B 1 31114U 07010B 10039.60523866 .00000105 00000-0 68253-4 0 7382 2 31114 98.2451 65.9628 0061186 102.8526 257.9493 14.18644373146677 GENESIS 2 1 31789U 07028A 10039.20552781 .00000087 00000-0 19706-4 0 7257 2 31789 64.5051 351.5228 0045887 228.0757 131.6443 15.03180094143607 COSMOS 2428 1 31792U 07029A 10040.04417025 .00000137 00000-0 10000-3 0 9094 2 31792 70.9786 275.7535 0009157 357.3456 167.1664 14.12291046134931 SL-16 R/B 1 31793U 07029B 10039.97400961 -.00000314 00000-0 -13985-3 0 7683 2 31793 70.9766 267.6749 0002412 257.0362 103.0473 14.14048073135082 CZ-2C R/B 1 33322U 08041C 10022.89369272 .26599751 31013-5 11246-3 0 5830 2 33322 97.9493 170.0696 0012074 147.2705 213.5218 16.57034264 78549 STS 130 1 36394U 10004A 10039.84075985 .00250945 11407-4 24908-3 0 55 2 36394 51.6476 169.7428 0095208 16.4142 120.3757 16.01634618 62